Other Public Products
Issued by NWS Charleston, SC

Current Version | Previous Version | Graphics & Text | Print | Product List | Glossary On
Versions: 1 2 3 4 5 6 7 8 9 10 11 12 13 14 15 16 17 18 19 20 21 22 23 24 25 26 27 28 29 30 31 32 33 34 35 36 37 38 39 40 41 42 43 44 45 46 47 48 49 50
207 FPUS82 KCHS 200312 OPUCHS TEST...KCHS/KSAV Gateway Observations...TEST National Weather Service Charleston SC 1000 PM EST MON FEB 19 2018 NOTE: "fair" indicates few or no clouds below 12,000 feet with no significant weather and/or obstructions to visibility. SCZ050-WAZ558-NCZ071-TXZ119-213-PAZ071-DCZ001-FLZ074-172-MI076- NYZ176-178-MAZ016-IL014-TNZ027-NJZ106-GAZ044-MD014-200400- ...Gateway Observations for Charleston International... CITY SKY/WX TMP DP RH WIND PRES REMARKS Chas Airport MOCLDY 65 63 93 SE5 30.38S FOG Seattle PTCLDY 33 11 39 CALM 30.19S Charlotte FOG 54 54 100 NE5 30.42R VSB 1/2 Dallas DFW CLOUDY 73 62 68 S22G29 29.80R Dallas Love CLOUDY 71 62 73 S18G25 29.82R Philladelphia FOG 47 46 97 SW3 30.35S VSB 3/4 Wash National CLOUDY 49 48 97 S5 30.35F Baltimore CLOUDY 45 45 100 CALM 30.34F FOG Miami CLOUDY 73 70 90 E16G25 30.26R Detroit LGT RAIN 57 54 89 SW18 29.96F Newark DRZL/FOG 46 46 100 CALM 30.33F VSB 1 Laguardia CLOUDY 47 45 93 SE5 30.33S FOG J F K FOG 44 44 100 S6 30.35F VSB 3/4 Boston Logan LGT RAIN 48 46 93 SW15 30.31S Ft. Lauderdale MOCLDY 77 72 84 E18G26 30.25S Chicago O`Hare LGT RAIN 57 54 89 S20G25 29.81R Chicago Midway LGT RAIN 58 56 93 S17G25 29.82F Houston Bush CLOUDY 73 69 87 S13 29.96S Houston Hobby CLOUDY 72 70 93 SE16G26 29.96S Nashville MOCLDY 66 55 67 S10 30.15S Atlanta MOCLDY 61 61 100 E12 30.32R $$ GAZ044-118-TXZ119-213-NCZ071-DCZ001-MDZ014-506-PAZ021-071-NJZ106- NYZ176-178-MAZ106-OHZ011-021-055-MIZ076-KYZ091-ILZ014-INZ047- MNZ060-ONZ431-200400- ...Gateway Observations for Savannah International... CITY SKY/WX TMP DP RH WIND PRES REMARKS Savannah Arpt FAIR 63 62 97 E3 30.37R FOG Atlanta MOCLDY 61 61 100 E12 30.32R Charlotte FOG 54 54 100 NE5 30.42R VSB 1/2 Dallas DFW CLOUDY 73 62 68 S22G29 29.80R Houston Bush CLOUDY 73 69 87 S13 29.96S Wash National CLOUDY 49 48 97 S5 30.35F Wash Dulles FAIR 46 46 100 S7 30.33F Baltimore CLOUDY 45 45 100 CALM 30.34F FOG Philadelphia FOG 47 46 97 SW3 30.35S VSB 3/4 Newark DRZL/FOG 46 46 100 CALM 30.33F VSB 1 Laguardia CLOUDY 47 45 93 SE5 30.33S FOG J F K FOG 44 44 100 S6 30.35F VSB 3/4 Boston LGT RAIN 48 46 93 SW15 30.31S Pittsburg MOCLDY 62 53 72 S6 30.13R Akron CLOUDY 63 54 72 S16 30.08S Cleveland CLOUDY 65 56 72 S15G24 30.04S Cincinnati FAIR 65 56 72 S14 30.08S Columbus FAIR 63 56 78 S10G17 30.09S Detroit LGT RAIN 57 54 89 SW18 29.96F Chicago O`Hare LGT RAIN 57 54 89 S20G25 29.81R Minneapolis FRZ DRZL 20 19 96 NE12 29.89F FOG WCI 8 Indianapolis MOCLDY 64 53 67 S18 29.98S Toronto Canada LGT RAIN 37 37 100 NW2 30.00S FOG $$

USA.gov is the U.S. government's official web portal to all federal, state and local government web resources and services.